User: anonymous   Login
Location: Namasale
(1.5000°N, 32.6167°E)
Time: 12:20:06
(UTC+00:00)
Language:

Sylda 4400 - Orbit

View from above orbital plane
View from above orbital plane
View from above satellite
View from above satellite

Ground track
Ground track

The orbit data is extracted from the following two-line orbital elements,

1 15680U 85035D   20190.32170100 +.00009059 +00000-0 +76736-3 0  9992
2 15680 006.7793 274.8093 3330039 105.8262 292.8520 08.64441275619838
Epoch (UTC): 08 July 2020 07:43:14
Eccentricity: 0.3330039
inclination: 6.7793°
perigee height: 311 km
apogee height: 6990 km
right ascension of ascending node: 274.8093°
argument of perigee: 105.8262°
revolutions per day: 8.64441275
mean anomaly at epoch: 292.8520°
orbit number at epoch: 61983

The dashed part of the orbit path shows where the satellite is in the earth's shadow,  

DLR